Location: Kaseke
(18.0171°S, 31.0526°E)
Time: 12:39:50
(UTC+00:00)

Delta 2 Rocket - Pass Details

Date: 14 July 2020
Orbit: 890 x 1677 km, 26.4° (Epoch: 07 August)

Event Time Altitude Azimuth Distance (km) Brightness Sun altitude
Exits shadow 03:10:52 26° 252° (WSW) 2,262 5.3 -18.0°
Maximum altitude 03:15:52 84° 337° (NNW) 1,158 4.3 -16.8°
Drops below altitude 10° 03:22:43 10° 65° (ENE) 2,792 7.8 -15.3°
Sets 03:25:11 0° 66° (ENE) 3,663 8.9 -14.7°
